Tracking 19846 objects as of 20-Sep-2019
HD Live streaming from Space Station
objects crossing your sky now

COSMOS 679

Track COSMOS 679 now!
10-day predictions
COSMOS 679 is classified as:


NORAD ID: 7437
Int'l Code: 1974-072C
Perigee: 1,472.6 km
Apogee: 1,517.8 km
Inclination: 74.0 °
Period: 115.7 minutes
Semi major axis: 7866 km
RCS: 0.7099 m2 (medium)
Launch date: September 19, 1974
Source: Commonwealth of Independent States (former USSR) (CIS)
Launch site: PLESETSK MISSILE AND SPACE COMPLEX (PKMTR)
aabbcc
Your satellite tracking list
Your tracking list is empty




NASA's NSSDC Master Catalog

Two Line Element Set (TLE):
1  7437U 74072C   19262.74354387 -.00000004  00000-0  82637-4 0  9997
2  7437  74.0335 228.5890 0028690 305.0280 122.7741 12.44384581 44420
Source of the keplerian elements: AFSPC